KC3BHK-2 Weather Reports


Display with metric or nautical units.
time (UTC)temp
F
wind
direction
speed
MPH
gust
MPH
rain 1hr
in
rain 24hr
in
rain mn
in
humidity
%
barometer
mb
20260503172840 59 277 11.0 18.0 0.00 0.00 0.00
20260503172336 62 295 11.0 16.0 0.00 0.00 0.00
20260503171830 59 271 10.0 20.0 0.00 0.00 0.00
20260503171325 61 308 11.0 16.0 0.00 0.00 0.00
20260503170818 62 297 0.0 10.0 0.00 0.00 0.00
20260503170313 58 24 1.0 22.0 0.00 0.00 0.00
20260503160210 56 345 3.0 10.0 0.00 0.00 0.00
20260503150612 57 290 5.0 16.0 0.00 0.00 0.00
20260503150107 56 297 5.0 16.0 0.00 0.00 0.00
20260503131417 46 284 6.0 21.0 0.00 0.00 0.00
20260503130912 46 264 17.0 22.0 0.00 0.00 0.00
20260503130404 46 288 17.0 22.0 0.00 0.00 0.00
20260503110657 39 277 2.0 12.0 0.00 0.00 0.00
20260503110149 40 309 8.0 10.0 0.00 0.00 0.00
20260503090440 37 278 2.0 7.0 0.00 0.00 0.00
20260503081343 40 266 8.0 9.0 0.00 0.00 0.00
20260503080838 40 298 5.0 8.0 0.00 0.00 0.00
20260503080333 40 321 1.0 9.0 0.00 0.00 0.00
20260503072752 41 346 1.0 8.0 0.00 0.00 0.00
20260503072246 41 288 4.0 9.0 0.00 0.00 0.00
20260503071741 41 308 2.0 6.0 0.00 0.00 0.00
20260503071236 42 294 2.0 6.0 0.00 0.00 0.00
20260503070226 42 302 4.0 6.0 0.00 0.00 0.00
20260503060118 38 294 3.0 4.0 0.00 0.00 0.00
20260503055105 39 295 1.0 5.0 0.00 0.00 0.00
20260503054600 38 267 4.0 6.0 0.00 0.00 0.00
20260503054055 37 278 5.0 4.0 0.00 0.00 0.00
20260503053550 36 231 4.0 2.0 0.00 0.00 0.00
20260503053045 35 187 2.0 0.0 0.00 0.00 0.00
20260503052536 36 179 0.0 0.0 0.00 0.00 0.00
20260503052030 36 179 0.0 0.0 0.00 0.00 0.00
20260503051525 36 179 0.0 0.0 0.00 0.00 0.00
20260503051020 36 179 0.0 0.0 0.00 0.00 0.00
20260503050515 37 179 0.0 0.0 0.00 0.00 0.00
20260503045502 39 179 0.0 3.0 0.00 0.00 0.00
20260503044957 39 235 2.0 5.0 0.00 0.00 0.00
20260503044452 38 262 0.0 7.0 0.00 0.00 0.00
20260503043947 39 195 0.0 3.0 0.00 0.00 0.00
20260503043442 39 271 0.0 0.0 0.00 0.00 0.00
20260503042937 37 271 0.0 0.0 0.00 0.00 0.00
20260503042429 39 271 0.0 0.0 0.00 0.00 0.00
20260503041924 39 271 0.0 0.0 0.00 0.00 0.00
20260503041419 40 271 0.0 0.0 0.00 0.00 0.00
20260503040914 40 271 0.0 2.0 0.00 0.00 0.00
20260503040409 40 271 0.0 2.0 0.00 0.00 0.00
20260503035904 40 278 0.0 1.0 0.00 0.00 0.00
20260503034851 41 346 0.0 3.0 0.00 0.00 0.00
20260503034346 42 284 0.0 0.0 0.00 0.00 0.00
20260503033841 41 284 0.0 0.0 0.00 0.00 0.00
20260503033336 42 284 0.0 1.0 0.00 0.00 0.00
20260503032831 42 283 1.0 2.0 0.00 0.00 0.00
20260503032323 41 318 1.0 1.0 0.00 0.00 0.00
20260503031818 42 312 0.0 4.0 0.00 0.00 0.00
20260503031313 44 293 0.0 3.0 0.00 0.00 0.00
20260503030808 44 308 0.0 5.0 0.00 0.00 0.00
20260503030303 46 37 1.0 5.0 0.00 0.00 0.00
20260503025758 44 30 1.0 7.0 0.00 0.00 0.00
20260503025250 44 309 1.0 7.0 0.00 0.00 0.00
20260503024745 45 353 3.0 5.0 0.00 0.00 0.00
20260503024240 46 27 3.0 3.0 0.00 0.00 0.00
20260503023735 46 290 0.0 5.0 0.00 0.00 0.00
20260503023230 46 6 0.0 10.0 0.00 0.00 0.00
20260503022218 47 305 1.0 8.0 0.00 0.00 0.00
20260503021713 46 347 1.0 6.0 0.00 0.00 0.00
20260503021208 48 285 3.0 3.0 0.00 0.00 0.00
20260503020703 47 309 1.0 7.0 0.00 0.00 0.00
20260503020158 48 14 3.0 5.0 0.00 0.00 0.00
20260503015653 47 31 0.0 8.0 0.00 0.00 0.00
20260503015145 48 34 0.0 4.0 0.00 0.00 0.00
20260503014640 48 345 3.0 8.0 0.00 0.00 0.00
20260503014136 48 25 0.0 7.0 0.00 0.00 0.00
20260503013631 50 17 3.0 11.0 0.00 0.00 0.00
20260503013126 50 349 2.0 7.0 0.00 0.00 0.00
20260503012621 50 250 3.0 9.0 0.00 0.00 0.00
20260503012113 51 7 3.0 12.0 0.00 0.00 0.00
20260503011609 51 10 1.0 8.0 0.00 0.00 0.00
20260503011104 50 352 2.0 9.0 0.00 0.00 0.00
20260503010559 50 0 2.0 11.0 0.00 0.00 0.00
20260503010054 50 31 3.0 8.0 0.00 0.00 0.00
20260503005549 49 280 1.0 3.0 0.00 0.00 0.00
20260503005041 50 20 1.0 4.0 0.00 0.00 0.00
20260503004537 51 354 1.0 4.0 0.00 0.00 0.00
20260503004032 51 330 0.0 5.0 0.00 0.00 0.00
20260503003527 52 20 0.0 6.0 0.00 0.00 0.00
20260503003022 51 246 2.0 5.0 0.00 0.00 0.00
20260503002517 51 339 0.0 6.0 0.00 0.00 0.00
20260503002010 51 23 1.0 7.0 0.00 0.00 0.00
20260503001505 51 10 2.0 7.0 0.00 0.00 0.00
20260503001000 52 17 1.0 6.0 0.00 0.00 0.00
20260503000455 51 343 1.0 6.0 0.00 0.00 0.00
20260502235950 52 353 1.0 7.0 0.00 0.00 0.00
20260502235446 53 8 1.0 4.0 0.00 0.00 0.00
20260502234938 52 349 1.0 5.0 0.00 0.00 0.00
20260502234433 52 333 2.0 3.0 0.00 0.00 0.00
20260502233424 53 62 1.0 6.0 0.00 0.00 0.00
20260502232919 53 352 2.0 6.0 0.00 0.00 0.00
20260502232415 53 342 2.0 8.0 0.00 0.00 0.00
20260502231907 54 41 2.0 7.0 0.00 0.00 0.00
20260502231402 54 346 3.0 5.0 0.00 0.00 0.00
20260502230353 55 307 3.0 7.0 0.00 0.00 0.00
20260502225848 55 46 1.0 7.0 0.00 0.00 0.00
20260502225343 55 269 1.0 7.0 0.00 0.00 0.00
20260502224836 55 11 3.0 7.0 0.00 0.00 0.00
20260502224332 56 352 0.0 6.0 0.00 0.00 0.00
20260502223826 56 305 4.0 7.0 0.00 0.00 0.00
20260502223322 54 338 1.0 8.0 0.00 0.00 0.00
20260502222817 55 51 0.0 7.0 0.00 0.00 0.00
20260502222312 56 288 2.0 7.0 0.00 0.00 0.00
20260502221805 58 302 1.0 6.0 0.00 0.00 0.00
20260502221300 57 28 0.0 4.0 0.00 0.00 0.00
20260502220756 58 31 2.0 9.0 0.00 0.00 0.00
20260502220251 57 357 1.0 9.0 0.00 0.00 0.00
20260502215746 59 345 3.0 8.0 0.00 0.00 0.00
20260502214734 57 316 6.0 7.0 0.00 0.00 0.00
20260502214229 55 328 2.0 9.0 0.00 0.00 0.00
20260502213724 56 302 3.0 8.0 0.00 0.00 0.00
20260502213220 57 305 5.0 9.0 0.00 0.00 0.00
20260502212210 58 290 1.0 5.0 0.00 0.00 0.00
20260502211703 59 346 2.0 10.0 0.00 0.00 0.00
20260502211158 59 284 9.0 9.0 0.00 0.00 0.00
20260502210148 56 53 2.0 11.0 0.00 0.00 0.00
20260502205643 58 27 2.0 10.0 0.00 0.00 0.00
20260502205139 57 329 2.0 7.0 0.00 0.00 0.00
20260502204631 59 249 1.0 7.0 0.00 0.00 0.00
20260502204126 58 4 3.0 12.0 0.00 0.00 0.00
20260502203622 58 27 1.0 16.0 0.00 0.00 0.00
20260502203117 58 288 7.0 16.0 0.00 0.00 0.00
20260502202612 61 13 4.0 18.0 0.00 0.00 0.00
20260502202108 64 278 10.0 14.0 0.00 0.00 0.00
20260502201600 63 288 8.0 15.0 0.00 0.00 0.00
20260502201055 65 278 5.0 18.0 0.00 0.00 0.00
20260502200551 65 271 16.0 13.0 0.00 0.00 0.00
20260502200046 65 228 5.0 12.0 0.00 0.00 0.00
20260502195541 61 308 2.0 12.0 0.00 0.00 0.00
20260502195036 60 316 7.0 12.0 0.00 0.00 0.00
20260502194529 60 290 8.0 8.0 0.00 0.00 0.00
20260502194024 61 308 3.0 11.0 0.00 0.00 0.00
20260502193519 59 281 8.0 8.0 0.00 0.00 0.00
20260502193014 59 269 5.0 10.0 0.00 0.00 0.00
20260502192510 57 266 6.0 12.0 0.00 0.00 0.00
20260502192005 57 287 9.0 10.0 0.00 0.00 0.00
20260502191457 58 294 9.0 9.0 0.00 0.00 0.00
20260502190953 59 347 4.0 4.0 0.00 0.00 0.00
20260502190448 59 55 1.0 11.0 0.00 0.00 0.00
20260502185943 60 293 3.0 13.0 0.00 0.00 0.00
20260502185439 63 345 3.0 9.0 0.00 0.00 0.00
20260502184934 63 273 3.0 10.0 0.00 0.00 0.00
20260502184427 59 300 4.0 10.0 0.00 0.00 0.00
20260502183922 59 307 4.0 10.0 0.00 0.00 0.00
20260502183418 59 298 5.0 10.0 0.00 0.00 0.00
20260502182913 60 217 3.0 9.0 0.00 0.00 0.00
20260502182408 58 281 5.0 15.0 0.00 0.00 0.00
20260502181903 60 288 9.0 13.0 0.00 0.00 0.00
20260502181355 61 238 6.0 12.0 0.00 0.00 0.00
20260502180850 60 245 1.0 14.0 0.00 0.00 0.00
20260502180346 67 269 12.0 9.0 0.00 0.00 0.00